EW5612 Weather Reports


Display with metric or nautical units.
time (UTC)temp
F
wind
direction
speed
MPH
gust
MPH
rain 1hr
in
rain 24hr
in
rain mn
in
humidity
%
barometer
mb
20260509105204 73 301 0.0 0.0 0.00 0.02 0.02 96 1010.4
20260509104704 73 301 0.0 0.0 0.00 0.02 0.02 96 1010.4
20260509104204 73 301 0.0 0.0 0.00 0.02 0.02 96 1010.2
20260509103703 73 301 0.0 2.0 0.00 0.02 0.02 96 1010.2
20260509103203 73 189 0.0 0.0 0.00 0.02 0.02 96 1010.1
20260509102704 73 189 0.0 0.0 0.00 0.02 0.02 96 1010.1
20260509101704 73 189 0.0 0.0 0.00 0.02 0.02 96 1009.6
20260509100204 73 189 0.0 0.0 0.00 0.02 0.02 96 1009.4
20260509095203 73 189 0.0 0.0 0.00 0.02 0.02 95 1009.3
20260509094204 73 189 0.0 0.0 0.01 0.02 0.02 95 1009.2
20260509093704 73 189 0.0 0.0 0.01 0.02 0.02 95 1009.1
20260509093204 73 189 0.0 0.0 0.02 0.02 0.02 95 1009.1
20260509092704 73 189 0.0 0.0 0.02 0.02 0.02 95 1009.2
20260509092204 73 189 0.0 0.0 0.02 0.02 0.02 95 1009.2
20260509091203 73 189 0.0 0.0 0.02 0.02 0.02 95 1009.2
20260509090703 73 189 0.0 0.0 0.02 0.02 0.02 95 1008.9
20260509090204 73 189 0.0 0.0 0.02 0.02 0.02 95 1008.9
20260509085704 73 189 0.0 0.0 0.02 0.02 0.02 95 1008.8
20260509085204 73 189 0.0 0.0 0.02 0.02 0.02 95 1009.0
20260509084203 73 189 0.0 0.0 0.01 0.01 0.01 95 1009.3
20260509083704 73 189 0.0 0.0 0.01 0.01 0.01 95 1009.5
20260509083204 73 189 0.0 0.0 0.00 0.00 0.00 95 1009.6
20260509082204 73 189 0.0 0.0 0.00 0.00 0.00 95 1009.6
20260509081203 73 189 0.0 0.0 0.00 0.00 0.00 95 1009.6
20260509080704 73 189 0.0 0.0 0.00 0.00 0.00 95 1009.6
20260509075204 73 189 0.0 0.0 0.00 0.00 0.00 94 1009.3
20260509074204 73 189 0.0 0.0 0.00 0.00 0.00 94 1009.5
20260509073204 73 189 0.0 0.0 0.00 0.00 0.00 94 1009.5
20260509072704 73 189 0.0 0.0 0.00 0.00 0.00 94 1009.4
20260509071704 73 189 0.0 0.0 0.00 0.00 0.00 94 1009.2
20260509064703 73 189 0.0 0.0 0.00 0.00 0.00 94 1009.3
20260509064204 73 189 0.0 0.0 0.00 0.00 0.00 94 1009.4
20260509063704 73 189 0.0 0.0 0.00 0.00 0.00 94 1009.3
20260509063204 73 189 0.0 0.0 0.00 0.00 0.00 94 1009.2
20260509062704 73 189 0.0 0.0 0.00 0.00 0.00 94 1009.3
20260509062203 73 189 0.0 0.0 0.00 0.00 0.00 94 1009.2
20260509061705 73 189 0.0 0.0 0.00 0.00 0.00 94 1009.2
20260509061203 73 189 0.0 0.0 0.00 0.00 0.00 94 1009.1
20260509060703 73 189 0.0 0.0 0.00 0.00 0.00 94 1009.1
20260509060204 73 189 0.0 0.0 0.00 0.00 0.00 94 1009.1
20260509055703 73 189 0.0 1.0 0.00 0.00 0.00 94 1009.3
20260509055204 73 189 0.0 1.0 0.00 0.00 0.00 94 1009.3
20260509054703 73 185 0.0 3.0 0.00 0.00 0.00 94 1009.3
20260509054203 73 166 0.0 1.0 0.00 0.00 0.00 93 1009.3
20260509053703 73 168 0.0 0.0 0.00 0.00 0.00 93 1009.3
20260509053204 73 132 0.0 0.0 0.00 0.00 0.00 93 1009.3
20260509052704 73 125 0.0 0.0 0.00 0.00 0.00 93 1009.2
20260509052204 73 125 0.0 0.0 0.00 0.00 0.00 93 1009.0
20260509051704 73 125 0.0 0.0 0.00 0.00 0.00 93 1008.9
20260509051203 73 122 1.0 3.0 0.00 0.00 0.00 93 1009.1
20260509050704 73 166 0.0 0.0 0.00 0.00 0.00 93 1009.1
20260509045204 73 114 0.0 0.0 0.00 0.00 0.00 93 1009.2
20260509044204 73 100 0.0 0.0 0.00 0.00 0.00 93 1009.1
20260509043704 73 100 0.0 0.0 0.00 0.00 0.00 93 1009.1
20260509043204 73 100 0.0 0.0 0.00 0.00 0.00 92 1009.2
20260509042704 73 98 0.0 0.0 0.00 0.00 0.00 92 1009.2
20260509042203 73 98 0.0 0.0 0.00 0.00 0.00 92 1009.2
20260509040703 73 98 0.0 0.0 0.00 0.00 0.00 91 1009.4
20260509040204 73 98 0.0 0.0 0.00 0.00 0.00 91 1009.5
20260509035704 74 98 0.0 0.0 0.00 0.00 0.00 91 1009.5
20260509035204 74 98 0.0 0.0 0.00 0.00 0.00 91 1009.4
20260509034704 74 98 0.0 0.0 0.00 0.00 0.00 90 1009.2
20260509034204 74 98 0.0 0.0 0.00 0.00 0.00 90 1009.1
20260509033703 74 98 0.0 0.0 0.00 0.00 0.00 90 1009.0
20260509033203 74 98 0.0 0.0 0.00 0.00 0.00 90 1009.0
20260509032703 74 98 0.0 0.0 0.00 0.00 0.00 90 1009.1
20260509031203 74 98 0.0 0.0 0.00 0.00 0.00 89 1009.1
20260509030703 74 98 0.0 0.0 0.00 0.00 0.00 88 1009.0
20260509030204 74 98 0.0 0.0 0.00 0.00 0.00 88 1008.9
20260509025203 74 98 0.0 0.0 0.00 0.00 0.00 87 1008.7
20260509024703 75 98 0.0 0.0 0.00 0.00 0.00 87 1008.5
20260509024204 75 98 0.0 0.0 0.00 0.00 0.00 88 1008.5
20260509023704 75 98 0.0 0.0 0.00 0.00 0.00 88 1008.4
20260509022204 75 98 0.0 0.0 0.00 0.00 0.00 87 1008.3
20260509021703 76 98 0.0 0.0 0.00 0.00 0.00 87 1008.3
20260509020703 76 98 0.0 0.0 0.00 0.00 0.00 86 1008.2
20260509020204 76 98 0.0 0.0 0.00 0.00 0.00 86 1008.1
20260509015703 76 98 0.0 0.0 0.00 0.00 0.00 85 1008.1
20260509014703 76 98 0.0 0.0 0.00 0.00 0.00 85 1007.9
20260509014203 76 98 0.0 0.0 0.00 0.00 0.00 85 1007.9
20260509013704 76 98 0.0 0.0 0.00 0.00 0.00 85 1008.0
20260509013203 76 98 0.0 0.0 0.00 0.00 0.00 85 1007.9
20260509012703 76 98 0.0 1.0 0.00 0.00 0.00 85 1007.9
20260509011703 76 98 0.0 0.0 0.00 0.00 0.00 84 1007.9
20260509010704 77 98 0.0 0.0 0.00 0.00 0.00 84 1007.9
20260509005704 77 98 0.0 0.0 0.00 0.00 0.00 83 1007.8
20260509005204 77 98 0.0 0.0 0.00 0.00 0.00 83 1007.8
20260509004703 77 98 0.0 0.0 0.00 0.00 0.00 83 1007.8
20260509003204 77 98 0.0 0.0 0.00 0.00 0.00 83 1008.0
20260509002704 77 98 0.0 1.0 0.00 0.00 0.00 82 1008.0
20260509002204 77 98 0.0 0.0 0.00 0.00 0.00 83 1007.8
20260509001704 77 98 0.0 0.0 0.00 0.00 0.00 83 1007.8
20260509001203 77 98 0.0 0.0 0.00 0.00 0.00 82 1007.8
20260509000703 77 98 0.0 0.0 0.00 0.00 0.00 82 1007.9
20260509000204 78 98 0.0 0.0 0.00 0.00 0.00 82 1007.9
20260508235703 78 98 0.0 0.0 0.00 0.00 0.00 82 1007.9
20260508235204 78 98 0.0 0.0 0.00 0.00 0.00 82 1007.8
20260508234704 78 98 0.0 0.0 0.00 0.00 0.00 81 1007.9
20260508234203 78 98 0.0 0.0 0.00 0.00 0.00 81 1007.9
20260508233703 78 98 0.0 0.0 0.00 0.00 0.00 81 1007.9
20260508233203 78 98 0.0 0.0 0.00 0.00 0.00 81 1007.9
20260508232703 78 98 0.0 0.0 0.00 0.00 0.00 80 1007.9
20260508232204 78 98 0.0 0.0 0.00 0.00 0.00 80 1007.9
20260508231703 78 98 0.0 0.0 0.00 0.00 0.00 80 1008.0
20260508230203 79 98 0.0 0.0 0.00 0.00 0.00 79 1007.9
20260508225704 79 99 0.0 0.0 0.00 0.00 0.00 80 1007.9
20260508225204 79 100 0.0 0.0 0.00 0.00 0.00 80 1007.9
20260508224204 79 91 0.0 0.0 0.00 0.00 0.00 79 1007.8
20260508223703 79 87 0.0 0.0 0.00 0.00 0.00 78 1007.8
20260508223203 79 79 0.0 0.0 0.00 0.00 0.00 78 1007.9
20260508222704 80 79 0.0 0.0 0.00 0.00 0.00 78 1007.9
20260508221703 80 75 0.0 1.0 0.00 0.00 0.00 78 1007.9
20260508221203 80 75 0.0 0.0 0.00 0.00 0.00 77 1008.0
20260508220703 80 121 0.0 0.0 0.00 0.00 0.00 76 1008.0
20260508220204 80 121 0.0 0.0 0.00 0.00 0.00 76 1008.0
20260508214203 80 131 0.0 0.0 0.00 0.00 0.00 78 1008.1
20260508213703 80 131 0.0 0.0 0.00 0.00 0.00 77 1008.3
20260508213204 80 131 0.0 2.0 0.00 0.00 0.00 76 1008.3
20260508212703 80 131 0.0 0.0 0.00 0.00 0.00 77 1008.4
20260508212203 80 131 0.0 0.0 0.00 0.00 0.00 75 1008.4
20260508211704 80 131 0.0 0.0 0.00 0.00 0.00 77 1008.3
20260508211203 80 131 0.0 0.0 0.00 0.00 0.00 75 1008.4
20260508210203 81 132 0.0 0.0 0.00 0.00 0.00 75 1008.7
20260508205704 80 129 0.0 0.0 0.00 0.00 0.00 76 1008.7
20260508205203 80 129 0.0 1.0 0.00 0.00 0.00 75 1008.8
20260508204704 80 123 1.0 3.0 0.00 0.00 0.00 75 1008.9
20260508203703 80 109 0.0 0.0 0.00 0.00 0.00 76 1008.9
20260508203203 80 108 0.0 0.0 0.00 0.00 0.00 75 1009.1
20260508202203 80 111 0.0 0.0 0.00 0.00 0.00 75 1009.2
20260508201703 80 183 0.0 0.0 0.00 0.00 0.00 74 1009.4
20260508201203 80 182 0.0 0.0 0.00 0.00 0.00 73 1009.5
20260508200703 80 193 0.0 0.0 0.00 0.00 0.00 74 1009.5
20260508200204 80 100 0.0 0.0 0.00 0.00 0.00 74 1009.6
20260508195704 80 96 0.0 0.0 0.00 0.00 0.00 74 1009.5
20260508195203 80 96 0.0 0.0 0.00 0.00 0.00 74 1009.6
20260508194703 80 96 0.0 0.0 0.00 0.00 0.00 73 1009.5
20260508194204 79 186 0.0 0.0 0.00 0.00 0.00 75 1009.7
20260508193704 79 187 0.0 0.0 0.00 0.00 0.00 75 1009.7
20260508193203 79 130 0.0 0.0 0.00 0.00 0.00 76 1009.9
20260508192204 78 81 0.0 0.0 0.00 0.00 0.00 77 1009.9
20260508191704 77 82 0.0 0.0 0.00 0.00 0.00 77 1010.0
20260508191203 77 82 0.0 0.0 0.00 0.00 0.00 78 1010.0
20260508190703 77 70 0.0 2.0 0.00 0.00 0.00 77 1010.1
20260508185704 76 77 1.0 3.0 0.00 0.00 0.00 78 1010.2
20260508185204 76 72 0.0 2.0 0.00 0.00 0.00 79 1010.3
20260508184203 74 195 0.0 2.0 0.00 0.00 0.00 80 1010.4
20260508183704 74 175 0.0 1.0 0.00 0.00 0.00 81 1010.6
20260508182704 73 96 0.0 0.0 0.00 0.00 0.00 80 1010.9
20260508182204 73 96 0.0 0.0 0.00 0.00 0.00 80 1011.0
20260508181704 73 96 0.0 0.0 0.00 0.00 0.00 80 1011.1
20260508180703 73 96 0.0 0.0 0.00 0.00 0.00 79 1011.3
20260508180204 73 96 0.0 0.0 0.00 0.00 0.00 79 1011.3
20260508175703 73 96 0.0 0.0 0.00 0.00 0.00 79 1011.2
20260508174703 74 96 0.0 0.0 0.00 0.00 0.00 80 1011.2
20260508174204 74 96 0.0 0.0 0.00 0.00 0.00 79 1011.3
20260508173704 74 96 0.0 0.0 0.00 0.00 0.00 79 1011.4
20260508173204 74 96 0.0 0.0 0.00 0.00 0.00 80 1011.5
20260508172703 73 96 0.0 0.0 0.00 0.00 0.00 79 1011.5
20260508172204 73 96 0.0 0.0 0.00 0.00 0.00 79 1011.4
20260508171704 73 96 0.0 0.0 0.00 0.00 0.00 78 1011.4
20260508171204 73 96 0.0 0.0 0.00 0.00 0.00 78 1011.4
20260508170203 73 99 0.0 0.0 0.00 0.00 0.00 78 1011.4
20260508165703 73 94 0.0 0.0 0.00 0.00 0.00 79 1011.6
20260508165204 72 30 0.0 0.0 0.00 0.00 0.00 80 1011.6
20260508163704 71 36 0.0 0.0 0.00 0.00 0.00 82 1011.9
20260508163204 71 37 0.0 0.0 0.00 0.00 0.00 81 1011.9
20260508162704 71 37 0.0 0.0 0.00 0.00 0.00 81 1011.8
20260508162203 70 39 0.0 0.0 0.00 0.00 0.00 82 1012.1
20260508161703 70 40 0.0 0.0 0.00 0.00 0.00 81 1012.1
20260508160703 69 38 0.0 0.0 0.00 0.00 0.00 83 1012.2
20260508160204 69 38 0.0 0.0 0.00 0.00 0.00 83 1012.3
20260508155704 69 38 0.0 0.0 0.00 0.00 0.00 83 1012.3
20260508155204 69 38 0.0 0.0 0.00 0.00 0.00 82 1012.4
20260508154703 68 39 0.0 0.0 0.00 0.00 0.00 82 1012.4
20260508153703 68 37 0.0 0.0 0.00 0.00 0.00 82 1012.4
20260508153204 68 37 0.0 0.0 0.00 0.00 0.00 82 1012.5
20260508152704 68 37 0.0 0.0 0.00 0.00 0.00 83 1012.6
20260508152203 67 35 0.0 0.0 0.00 0.00 0.00 83 1012.6
20260508151704 67 35 0.0 0.0 0.00 0.00 0.00 83 1012.5
20260508150703 67 35 0.0 0.0 0.00 0.00 0.00 84 1012.6
20260508150204 66 34 0.0 0.0 0.00 0.00 0.00 84 1012.7
20260508145704 66 35 0.0 0.0 0.00 0.00 0.00 84 1012.7
20260508145204 66 35 0.0 0.0 0.00 0.00 0.00 84 1012.8
20260508144703 66 35 0.0 0.0 0.00 0.00 0.00 85 1012.9
20260508143704 65 13 0.0 0.0 0.00 0.00 0.00 85 1012.8
20260508143204 65 10 0.0 0.0 0.00 0.00 0.00 85 1012.7
20260508142704 65 0 0.0 0.0 0.00 0.00 0.00 85 1012.9
20260508142204 65 15 0.0 0.0 0.00 0.00 0.00 85 1012.9
20260508141704 65 66 0.0 0.0 0.00 0.00 0.00 85 1012.9
20260508141204 64 68 0.0 0.0 0.00 0.00 0.00 85 1013.0
20260508140704 64 0 0.0 1.0 0.00 0.00 0.00 85 1013.1
20260508140203 64 319 0.0 0.0 0.00 0.00 0.00 86 1013.0
20260508135703 64 40 0.0 0.0 0.00 0.00 0.00 87 1013.1
20260508135204 64 49 0.0 0.0 0.00 0.00 0.00 87 1013.1
20260508134203 63 48 0.0 0.0 0.00 0.00 0.00 87 1013.4
20260508133704 63 48 0.0 0.0 0.00 0.00 0.00 87 1013.4
20260508132703 63 52 0.0 0.0 0.00 0.00 0.00 87 1013.5
20260508132203 63 52 0.0 0.0 0.00 0.00 0.00 87 1013.6
20260508131704 63 56 0.0 0.0 0.00 0.00 0.00 87 1013.6
20260508130203 63 51 0.0 0.0 0.00 0.00 0.00 88 1013.0
20260508125703 62 28 0.0 0.0 0.00 0.00 0.00 88 1013.0
20260508125203 62 47 0.0 0.0 0.00 0.00 0.00 88 1013.0
20260508124703 62 299 0.0 1.0 0.00 0.00 0.00 88 1012.9
20260508124204 62 298 0.0 1.0 0.00 0.00 0.00 88 1013.0
20260508123705 62 0 0.0 0.0 0.00 0.00 0.00 88 1012.9
20260508123203 62 56 0.0 0.0 0.00 0.00 0.00 88 1013.0
20260508122704 62 329 0.0 0.0 0.00 0.00 0.00 88 1013.2
20260508122203 62 319 0.0 0.0 0.00 0.00 0.00 88 1013.2
20260508121703 62 318 0.0 0.0 0.00 0.00 0.00 88 1013.1
20260508121204 62 317 0.0 0.0 0.00 0.00 0.00 87 1013.2
20260508120703 62 317 0.0 0.0 0.00 0.00 0.00 87 1013.4
20260508120203 62 51 0.0 0.0 0.00 0.00 0.00 87 1013.4
20260508115704 62 51 0.0 1.0 0.00 0.00 0.00 87 1013.5
20260508115203 62 86 0.0 0.0 0.00 0.00 0.00 87 1013.5
20260508114204 62 97 0.0 0.0 0.00 0.00 0.00 87 1013.8
20260508112704 62 32 0.0 0.0 0.00 0.00 0.00 87 1013.6
20260508112203 62 33 0.0 0.0 0.00 0.00 0.00 87 1013.6
20260508111704 62 37 0.0 1.0 0.00 0.00 0.00 86 1013.4
20260508111204 62 321 0.0 0.0 0.00 0.00 0.00 86 1013.3
20260508110703 62 23 0.0 0.0 0.00 0.00 0.00 86 1013.2
20260508110204 62 28 0.0 0.0 0.00 0.00 0.00 86 1013.4
20260508105704 62 29 0.0 0.0 0.00 0.00 0.00 86 1013.6